Year,Month,Day,Hour,Minute,Value (Times are PST for temperature in C)
2017,07,05,00,00,15.80
2017,07,05,00,01,15.80
2017,07,05,00,02,15.80
2017,07,05,00,03,15.80
2017,07,05,00,04,15.80
2017,07,05,00,05,15.80
2017,07,05,00,06,15.70
2017,07,05,00,07,15.70
2017,07,05,00,08,15.70
2017,07,05,00,09,15.70
2017,07,05,00,10,15.70
2017,07,05,00,11,15.70
2017,07,05,00,12,15.70
2017,07,05,00,13,15.70
2017,07,05,00,14,15.70
2017,07,05,00,15,15.70
2017,07,05,00,16,15.70
2017,07,05,00,17,15.70
2017,07,05,00,18,15.70
2017,07,05,00,19,15.60
2017,07,05,00,20,15.60
2017,07,05,00,21,15.60
2017,07,05,00,22,15.60
2017,07,05,00,23,15.60
2017,07,05,00,24,15.60
2017,07,05,00,25,15.50
2017,07,05,00,26,15.50
2017,07,05,00,27,15.50
2017,07,05,00,28,15.50
2017,07,05,00,29,15.50
2017,07,05,00,30,15.50
2017,07,05,00,31,15.50
2017,07,05,00,32,15.50
2017,07,05,00,33,15.50
2017,07,05,00,34,15.50
2017,07,05,00,35,15.50
2017,07,05,00,36,15.50
2017,07,05,00,37,15.50
2017,07,05,00,38,15.50
2017,07,05,00,39,15.50
2017,07,05,00,40,15.50
2017,07,05,00,41,15.50
2017,07,05,00,42,15.50
2017,07,05,00,43,15.40
2017,07,05,00,44,15.40
2017,07,05,00,45,15.40
2017,07,05,00,46,15.40
2017,07,05,00,47,15.40
2017,07,05,00,48,15.40
2017,07,05,00,49,15.40
2017,07,05,00,50,15.40
2017,07,05,00,51,15.40
2017,07,05,00,52,15.40
2017,07,05,00,53,15.40
2017,07,05,00,54,15.30
2017,07,05,00,55,15.30
2017,07,05,00,56,15.30
2017,07,05,00,57,15.30
2017,07,05,00,58,15.30
2017,07,05,00,59,15.30
2017,07,05,01,00,15.30
2017,07,05,01,01,15.20
2017,07,05,01,02,15.20
2017,07,05,01,03,15.20
2017,07,05,01,04,15.20
2017,07,05,01,05,15.10
2017,07,05,01,06,15.10
2017,07,05,01,07,15.10
2017,07,05,01,08,15.10
2017,07,05,01,09,15.10
2017,07,05,01,10,15.00
2017,07,05,01,11,15.00
2017,07,05,01,12,15.00
2017,07,05,01,13,15.00
2017,07,05,01,14,15.00
2017,07,05,01,15,14.90
2017,07,05,01,16,14.90
2017,07,05,01,17,14.90
2017,07,05,01,18,14.90
2017,07,05,01,19,14.90
2017,07,05,01,20,14.80
2017,07,05,01,21,14.80
2017,07,05,01,22,14.80
2017,07,05,01,23,14.80
2017,07,05,01,24,14.80
2017,07,05,01,25,14.80
2017,07,05,01,26,14.80
2017,07,05,01,27,14.70
2017,07,05,01,28,14.70
2017,07,05,01,29,14.70
2017,07,05,01,30,14.70
2017,07,05,01,31,14.70
2017,07,05,01,32,14.70
2017,07,05,01,33,14.70
2017,07,05,01,34,14.70
2017,07,05,01,35,14.60
2017,07,05,01,36,14.60
2017,07,05,01,37,14.60
2017,07,05,01,38,14.60
2017,07,05,01,39,14.60
2017,07,05,01,40,14.60
2017,07,05,01,41,14.60
2017,07,05,01,42,14.60
2017,07,05,01,43,14.50
2017,07,05,01,44,14.50
2017,07,05,01,45,14.50
2017,07,05,01,46,14.50
2017,07,05,01,47,14.50
2017,07,05,01,48,14.40
2017,07,05,01,49,14.40
2017,07,05,01,50,14.40
2017,07,05,01,51,14.40
2017,07,05,01,52,14.40
2017,07,05,01,53,14.40
2017,07,05,01,54,14.40
2017,07,05,01,55,14.40
2017,07,05,01,56,14.40
2017,07,05,01,57,14.30
2017,07,05,01,58,14.30
2017,07,05,01,59,14.30
2017,07,05,02,00,14.30
2017,07,05,02,01,14.30
2017,07,05,02,02,14.30
2017,07,05,02,03,14.30
2017,07,05,02,04,14.20
2017,07,05,02,05,14.20
2017,07,05,02,06,14.20
2017,07,05,02,07,14.20
2017,07,05,02,08,14.20
2017,07,05,02,09,14.20
2017,07,05,02,10,14.20
2017,07,05,02,11,14.20
2017,07,05,02,12,14.20
2017,07,05,02,13,14.20
2017,07,05,02,14,14.30
2017,07,05,02,15,14.30
2017,07,05,02,16,14.30
2017,07,05,02,17,14.30
2017,07,05,02,18,14.30
2017,07,05,02,19,14.30
2017,07,05,02,20,14.30
2017,07,05,02,21,14.30
2017,07,05,02,22,14.30
2017,07,05,02,23,14.30
2017,07,05,02,24,14.30
2017,07,05,02,25,14.30
2017,07,05,02,26,14.30
2017,07,05,02,27,14.30
2017,07,05,02,28,14.30
2017,07,05,02,29,14.30
2017,07,05,02,30,14.20
2017,07,05,02,31,14.20
2017,07,05,02,32,14.20
2017,07,05,02,33,14.20
2017,07,05,02,34,14.20
2017,07,05,02,35,14.20
2017,07,05,02,36,14.20
2017,07,05,02,37,14.20
2017,07,05,02,38,14.20
2017,07,05,02,39,14.20
2017,07,05,02,40,14.20
2017,07,05,02,41,14.20
2017,07,05,02,42,14.20
2017,07,05,02,43,14.20
2017,07,05,02,44,14.10
2017,07,05,02,45,14.10
2017,07,05,02,46,14.10
2017,07,05,02,47,14.10
2017,07,05,02,48,14.10
2017,07,05,02,49,14.20
2017,07,05,02,50,14.10
2017,07,05,02,51,14.10
2017,07,05,02,52,14.20
2017,07,05,02,53,14.10
2017,07,05,02,54,14.10
2017,07,05,02,55,14.10
2017,07,05,02,56,14.10
2017,07,05,02,57,14.10
2017,07,05,02,58,14.00
2017,07,05,02,59,14.00
2017,07,05,03,00,14.00
2017,07,05,03,01,14.00
2017,07,05,03,02,14.00
2017,07,05,03,03,13.90
2017,07,05,03,04,13.90
2017,07,05,03,05,13.90
2017,07,05,03,06,13.90
2017,07,05,03,07,13.90
2017,07,05,03,08,13.90
2017,07,05,03,09,13.90
2017,07,05,03,10,13.90
2017,07,05,03,11,13.90
2017,07,05,03,12,13.90
2017,07,05,03,13,13.90
2017,07,05,03,14,13.90
2017,07,05,03,15,13.90
2017,07,05,03,16,13.90
2017,07,05,03,17,13.90
2017,07,05,03,18,13.90
2017,07,05,03,19,13.80
2017,07,05,03,20,13.80
2017,07,05,03,21,13.80
2017,07,05,03,22,13.80
2017,07,05,03,23,13.80
2017,07,05,03,24,13.80
2017,07,05,03,25,13.80
2017,07,05,03,26,13.70
2017,07,05,03,27,13.70
2017,07,05,03,28,13.70
2017,07,05,03,29,13.70
2017,07,05,03,30,13.60
2017,07,05,03,31,13.60
2017,07,05,03,32,13.60
2017,07,05,03,33,13.60
2017,07,05,03,34,13.50
2017,07,05,03,35,13.50
2017,07,05,03,36,13.40
2017,07,05,03,37,13.40
2017,07,05,03,38,13.40
2017,07,05,03,39,13.30
2017,07,05,03,40,13.30
2017,07,05,03,41,13.30
2017,07,05,03,42,13.20
2017,07,05,03,43,13.20
2017,07,05,03,44,13.10
2017,07,05,03,45,13.10
2017,07,05,03,46,13.00
2017,07,05,03,47,13.00
2017,07,05,03,48,12.90
2017,07,05,03,49,12.80
2017,07,05,03,50,12.80
2017,07,05,03,51,12.70
2017,07,05,03,52,12.70
2017,07,05,03,53,12.70
2017,07,05,03,54,12.60
2017,07,05,03,55,12.60
2017,07,05,03,56,12.50
2017,07,05,03,57,12.50
2017,07,05,03,58,12.50
2017,07,05,03,59,12.40
2017,07,05,04,00,12.40
2017,07,05,04,01,12.40
2017,07,05,04,02,12.30
2017,07,05,04,03,12.30
2017,07,05,04,04,12.30
2017,07,05,04,05,12.30
2017,07,05,04,06,12.20
2017,07,05,04,07,12.20
2017,07,05,04,08,12.20
2017,07,05,04,09,12.20
2017,07,05,04,10,12.20
2017,07,05,04,11,12.20
2017,07,05,04,12,12.10
2017,07,05,04,13,12.10
2017,07,05,04,14,12.10
2017,07,05,04,15,12.10
2017,07,05,04,16,12.10
2017,07,05,04,17,12.00
2017,07,05,04,18,12.00
2017,07,05,04,19,12.00
2017,07,05,04,20,12.00
2017,07,05,04,21,12.00
2017,07,05,04,22,11.90
2017,07,05,04,23,11.90
2017,07,05,04,24,11.90
2017,07,05,04,25,11.90
2017,07,05,04,26,11.90
2017,07,05,04,27,11.90
2017,07,05,04,28,11.90
2017,07,05,04,29,11.90
2017,07,05,04,30,11.90
2017,07,05,04,31,11.80
2017,07,05,04,32,11.80
2017,07,05,04,33,11.80
2017,07,05,04,34,11.80
2017,07,05,04,35,11.80
2017,07,05,04,36,11.80
2017,07,05,04,37,11.80
2017,07,05,04,38,11.80
2017,07,05,04,39,11.80
2017,07,05,04,40,11.80
2017,07,05,04,41,11.80
2017,07,05,04,42,11.70
2017,07,05,04,43,11.70
2017,07,05,04,44,11.70
2017,07,05,04,45,11.70
2017,07,05,04,46,11.70
2017,07,05,04,47,11.70
2017,07,05,04,48,11.70
2017,07,05,04,49,11.70
2017,07,05,04,50,11.70
2017,07,05,04,51,11.70
2017,07,05,04,52,11.70
2017,07,05,04,53,11.70
2017,07,05,04,54,11.80
2017,07,05,04,55,11.80
2017,07,05,04,56,11.80
2017,07,05,04,57,11.80
2017,07,05,04,58,11.80
2017,07,05,04,59,11.80
2017,07,05,05,00,11.80
2017,07,05,05,01,11.80
2017,07,05,05,02,11.80
2017,07,05,05,03,11.80
2017,07,05,05,04,11.80
2017,07,05,05,05,11.80
2017,07,05,05,06,11.80
2017,07,05,05,07,11.80
2017,07,05,05,08,11.80
2017,07,05,05,09,11.80
2017,07,05,05,10,11.80
2017,07,05,05,11,11.80
2017,07,05,05,12,11.80
2017,07,05,05,13,11.80
2017,07,05,05,14,11.80
2017,07,05,05,15,11.80
2017,07,05,05,16,11.80
2017,07,05,05,17,11.80
2017,07,05,05,18,11.80
2017,07,05,05,19,11.80
2017,07,05,05,20,11.80
2017,07,05,05,21,11.80
2017,07,05,05,22,11.80
2017,07,05,05,23,11.80
2017,07,05,05,24,11.80
2017,07,05,05,25,11.80
2017,07,05,05,26,11.80
2017,07,05,05,27,11.80
2017,07,05,05,28,11.80
2017,07,05,05,29,11.80
2017,07,05,05,30,11.80
2017,07,05,05,31,11.90
2017,07,05,05,32,11.90
2017,07,05,05,33,11.90
2017,07,05,05,34,11.90
2017,07,05,05,35,12.00
2017,07,05,05,36,12.00
2017,07,05,05,37,12.10
2017,07,05,05,38,12.10
2017,07,05,05,39,12.20
2017,07,05,05,40,12.20
2017,07,05,05,41,12.20
2017,07,05,05,42,12.30
2017,07,05,05,43,12.30
2017,07,05,05,44,12.30
2017,07,05,05,45,12.40
2017,07,05,05,46,12.40
2017,07,05,05,47,12.40
2017,07,05,05,48,12.40
2017,07,05,05,49,12.50
2017,07,05,05,50,12.50
2017,07,05,05,51,12.50
2017,07,05,05,52,12.50
2017,07,05,05,53,12.60
2017,07,05,05,54,12.60
2017,07,05,05,55,12.60
2017,07,05,05,56,12.60
2017,07,05,05,57,12.70
2017,07,05,05,58,12.70
2017,07,05,05,59,12.70
2017,07,05,06,00,12.70
2017,07,05,06,01,12.80
2017,07,05,06,02,12.80
2017,07,05,06,03,12.80
2017,07,05,06,04,12.80
2017,07,05,06,05,12.90
2017,07,05,06,06,12.90
2017,07,05,06,07,12.90
2017,07,05,06,08,13.00
2017,07,05,06,09,13.00
2017,07,05,06,10,13.10
2017,07,05,06,11,13.20
2017,07,05,06,12,13.20
2017,07,05,06,13,13.30
2017,07,05,06,14,13.30
2017,07,05,06,15,13.40
2017,07,05,06,16,13.40
2017,07,05,06,17,13.50
2017,07,05,06,18,13.50
2017,07,05,06,19,13.60
2017,07,05,06,20,13.60
2017,07,05,06,21,13.60
2017,07,05,06,22,13.70
2017,07,05,06,23,13.70
2017,07,05,06,24,13.70
2017,07,05,06,25,13.70
2017,07,05,06,26,13.80
2017,07,05,06,27,13.80
2017,07,05,06,28,13.80
2017,07,05,06,29,13.90
2017,07,05,06,30,13.90
2017,07,05,06,31,14.00
2017,07,05,06,32,14.10
2017,07,05,06,33,14.20
2017,07,05,06,34,14.20
2017,07,05,06,35,14.30
2017,07,05,06,36,14.30
2017,07,05,06,37,14.30
2017,07,05,06,38,14.40
2017,07,05,06,39,14.40
2017,07,05,06,40,14.40
2017,07,05,06,41,14.50
2017,07,05,06,42,14.50
2017,07,05,06,43,14.60
2017,07,05,06,44,14.60
2017,07,05,06,45,14.70
2017,07,05,06,46,14.80
2017,07,05,06,47,14.90
2017,07,05,06,48,15.00
2017,07,05,06,49,15.10
2017,07,05,06,50,15.20
2017,07,05,06,51,15.20
2017,07,05,06,52,15.30
2017,07,05,06,53,15.40
2017,07,05,06,54,15.50
2017,07,05,06,55,15.60
2017,07,05,06,56,15.70
2017,07,05,06,57,15.70
2017,07,05,06,58,15.70
2017,07,05,06,59,15.80
2017,07,05,07,00,15.80
2017,07,05,07,01,15.90
2017,07,05,07,02,15.90
2017,07,05,07,03,15.90
2017,07,05,07,04,15.90
2017,07,05,07,05,16.00
2017,07,05,07,06,16.00
2017,07,05,07,07,16.00
2017,07,05,07,08,16.00
2017,07,05,07,09,16.10
2017,07,05,07,10,16.10
2017,07,05,07,11,16.10
2017,07,05,07,12,16.20
2017,07,05,07,13,16.20
2017,07,05,07,14,16.30
2017,07,05,07,15,16.30
2017,07,05,07,16,16.40
2017,07,05,07,17,16.40
2017,07,05,07,18,16.50
2017,07,05,07,19,16.50
2017,07,05,07,20,16.50
2017,07,05,07,21,16.50
2017,07,05,07,22,16.40
2017,07,05,07,23,16.40
2017,07,05,07,24,16.40
2017,07,05,07,25,16.30
2017,07,05,07,26,16.30
2017,07,05,07,27,16.30
2017,07,05,07,28,16.20
2017,07,05,07,29,16.20
2017,07,05,07,30,16.20
2017,07,05,07,31,16.20
2017,07,05,07,32,16.20
2017,07,05,07,33,16.20
2017,07,05,07,34,16.20
2017,07,05,07,35,16.30
2017,07,05,07,36,16.30
2017,07,05,07,37,16.40
2017,07,05,07,38,16.50
2017,07,05,07,39,16.60
2017,07,05,07,40,16.70
2017,07,05,07,41,16.70
2017,07,05,07,42,16.80
2017,07,05,07,43,16.90
2017,07,05,07,44,16.90
2017,07,05,07,45,17.00
2017,07,05,07,46,17.10
2017,07,05,07,47,17.10
2017,07,05,07,48,17.20
2017,07,05,07,49,17.30
2017,07,05,07,50,17.30
2017,07,05,07,51,17.40
2017,07,05,07,52,17.50
2017,07,05,07,53,17.50
2017,07,05,07,54,17.60
2017,07,05,07,55,17.70
2017,07,05,07,56,17.70
2017,07,05,07,57,17.80
2017,07,05,07,58,17.80
2017,07,05,07,59,17.90
2017,07,05,08,00,18.00
2017,07,05,08,01,18.10
2017,07,05,08,02,18.10
2017,07,05,08,03,18.20
2017,07,05,08,04,18.20
2017,07,05,08,05,18.20
2017,07,05,08,06,18.20
2017,07,05,08,07,18.20
2017,07,05,08,08,18.30
2017,07,05,08,09,18.30
2017,07,05,08,10,18.30
2017,07,05,08,11,18.30
2017,07,05,08,12,18.40
2017,07,05,08,13,18.50
2017,07,05,08,14,18.50
2017,07,05,08,15,18.60
2017,07,05,08,16,18.60
2017,07,05,08,17,18.70
2017,07,05,08,18,18.70
2017,07,05,08,19,18.80
2017,07,05,08,20,18.80
2017,07,05,08,21,18.90
2017,07,05,08,22,18.90
2017,07,05,08,23,18.90
2017,07,05,08,24,18.90
2017,07,05,08,25,19.00
2017,07,05,08,26,19.00
2017,07,05,08,27,19.00
2017,07,05,08,28,19.00
2017,07,05,08,29,19.00
2017,07,05,08,30,18.90
2017,07,05,08,31,18.90
2017,07,05,08,32,18.90
2017,07,05,08,33,18.90
2017,07,05,08,34,19.00
2017,07,05,08,35,19.00
2017,07,05,08,36,19.10
2017,07,05,08,37,19.10
2017,07,05,08,38,19.10
2017,07,05,08,39,19.20
2017,07,05,08,40,19.20
2017,07,05,08,41,19.20
2017,07,05,08,42,19.20
2017,07,05,08,43,19.20
2017,07,05,08,44,19.30
2017,07,05,08,45,19.30
2017,07,05,08,46,19.30
2017,07,05,08,47,19.30
2017,07,05,08,48,19.30
2017,07,05,08,49,19.40
2017,07,05,08,50,19.50
2017,07,05,08,51,19.50
2017,07,05,08,52,19.60
2017,07,05,08,53,19.70
2017,07,05,08,54,19.70
2017,07,05,08,55,19.70
2017,07,05,08,56,19.70
2017,07,05,08,57,19.70
2017,07,05,08,58,19.60
2017,07,05,08,59,19.50
2017,07,05,09,00,19.50
2017,07,05,09,01,19.50
2017,07,05,09,02,19.50
2017,07,05,09,03,19.60
2017,07,05,09,04,19.60
2017,07,05,09,05,19.70
2017,07,05,09,06,19.70
2017,07,05,09,07,19.70
2017,07,05,09,08,19.60
2017,07,05,09,09,19.50
2017,07,05,09,10,19.40
2017,07,05,09,11,19.40
2017,07,05,09,12,19.40
2017,07,05,09,13,19.40
2017,07,05,09,14,19.40
2017,07,05,09,15,19.50
2017,07,05,09,16,19.60
2017,07,05,09,17,19.70
2017,07,05,09,18,19.80
2017,07,05,09,19,19.80
2017,07,05,09,20,19.80
2017,07,05,09,21,19.80
2017,07,05,09,22,19.80
2017,07,05,09,23,19.80
2017,07,05,09,24,19.90
2017,07,05,09,25,19.90
2017,07,05,09,26,19.90
2017,07,05,09,27,19.90
2017,07,05,09,28,20.00
2017,07,05,09,29,19.90
2017,07,05,09,30,20.00
2017,07,05,09,31,20.00
2017,07,05,09,32,20.10
2017,07,05,09,33,20.20
2017,07,05,09,34,20.20
2017,07,05,09,35,20.30
2017,07,05,09,36,20.30
2017,07,05,09,37,20.30
2017,07,05,09,38,20.30
2017,07,05,09,39,20.30
2017,07,05,09,40,20.30
2017,07,05,09,41,20.30
2017,07,05,09,42,20.30
2017,07,05,09,43,20.30
2017,07,05,09,44,20.30
2017,07,05,09,45,20.30
2017,07,05,09,46,20.30
2017,07,05,09,47,20.40
2017,07,05,09,48,20.40
2017,07,05,09,49,20.40
2017,07,05,09,50,20.40
2017,07,05,09,51,20.40
2017,07,05,09,52,20.50
2017,07,05,09,53,20.50
2017,07,05,09,54,20.60
2017,07,05,09,55,20.60
2017,07,05,09,56,20.60
2017,07,05,09,57,20.60
2017,07,05,09,58,20.60
2017,07,05,09,59,20.70
2017,07,05,10,00,20.70
2017,07,05,10,01,20.80
2017,07,05,10,02,20.90
2017,07,05,10,03,21.00
2017,07,05,10,04,21.10
2017,07,05,10,05,21.10
2017,07,05,10,06,21.20
2017,07,05,10,07,21.20
2017,07,05,10,08,21.20
2017,07,05,10,09,21.20
2017,07,05,10,10,21.20
2017,07,05,10,11,21.20
2017,07,05,10,12,21.10
2017,07,05,10,13,21.10
2017,07,05,10,14,21.10
2017,07,05,10,15,21.00
2017,07,05,10,16,21.00
2017,07,05,10,17,21.00
2017,07,05,10,18,20.90
2017,07,05,10,19,20.90
2017,07,05,10,20,20.90
2017,07,05,10,21,20.90
2017,07,05,10,22,21.00
2017,07,05,10,23,21.00
2017,07,05,10,24,21.10
2017,07,05,10,25,21.10
2017,07,05,10,26,21.10
2017,07,05,10,27,21.10
2017,07,05,10,28,21.20
2017,07,05,10,29,21.20
2017,07,05,10,30,21.30
2017,07,05,10,31,21.30
2017,07,05,10,32,21.30
2017,07,05,10,33,21.30
2017,07,05,10,34,21.30
2017,07,05,10,35,21.20
2017,07,05,10,36,21.20
2017,07,05,10,37,21.20
2017,07,05,10,38,21.20
2017,07,05,10,39,21.30
2017,07,05,10,40,21.30
2017,07,05,10,41,21.30
2017,07,05,10,42,21.40
2017,07,05,10,43,21.40
2017,07,05,10,44,21.40
2017,07,05,10,45,21.40
2017,07,05,10,46,21.40
2017,07,05,10,47,21.30
2017,07,05,10,48,21.30
2017,07,05,10,49,21.20
2017,07,05,10,50,21.10
2017,07,05,10,51,21.00
2017,07,05,10,52,21.00
2017,07,05,10,53,20.90
2017,07,05,10,54,20.90
2017,07,05,10,55,21.00
2017,07,05,10,56,21.00
2017,07,05,10,57,21.00
2017,07,05,10,58,21.10
2017,07,05,10,59,21.20
2017,07,05,11,00,21.30
2017,07,05,11,01,21.40
2017,07,05,11,02,21.50
2017,07,05,11,03,21.60
2017,07,05,11,04,21.70
2017,07,05,11,05,21.80
2017,07,05,11,06,21.80
2017,07,05,11,07,21.80
2017,07,05,11,08,21.80
2017,07,05,11,09,21.80
2017,07,05,11,10,21.80
2017,07,05,11,11,21.80
2017,07,05,11,12,21.80
2017,07,05,11,13,21.80
2017,07,05,11,14,21.80
2017,07,05,11,15,21.80
2017,07,05,11,16,21.80
2017,07,05,11,17,21.90
2017,07,05,11,18,21.90
2017,07,05,11,19,21.90
2017,07,05,11,20,21.80
2017,07,05,11,21,21.90
2017,07,05,11,22,21.90
2017,07,05,11,23,21.90
2017,07,05,11,24,22.00
2017,07,05,11,25,22.10
2017,07,05,11,26,22.10
2017,07,05,11,27,22.10
2017,07,05,11,28,22.20
2017,07,05,11,29,22.20
2017,07,05,11,30,22.20
2017,07,05,11,31,22.10
2017,07,05,11,32,22.10
2017,07,05,11,33,22.10
2017,07,05,11,34,22.20
2017,07,05,11,35,22.20
2017,07,05,11,36,22.20
2017,07,05,11,37,22.30
2017,07,05,11,38,22.30
2017,07,05,11,39,22.30
2017,07,05,11,40,22.40
2017,07,05,11,41,22.50
2017,07,05,11,42,22.60
2017,07,05,11,43,22.70
2017,07,05,11,44,22.70
2017,07,05,11,45,22.70
2017,07,05,11,46,22.70
2017,07,05,11,47,22.80
2017,07,05,11,48,22.80
2017,07,05,11,49,22.80
2017,07,05,11,50,22.80
2017,07,05,11,51,22.80
2017,07,05,11,52,22.80
2017,07,05,11,53,22.70
2017,07,05,11,54,22.70
2017,07,05,11,55,22.60
2017,07,05,11,56,22.40
2017,07,05,11,57,22.30
2017,07,05,11,58,22.10
2017,07,05,11,59,22.00
2017,07,05,12,00,21.90
2017,07,05,12,01,21.80
2017,07,05,12,02,21.70
2017,07,05,12,03,21.70
2017,07,05,12,04,21.70
2017,07,05,12,05,21.70
2017,07,05,12,06,21.70
2017,07,05,12,07,21.80
2017,07,05,12,08,21.80
2017,07,05,12,09,21.80
2017,07,05,12,10,21.70
2017,07,05,12,11,21.60
2017,07,05,12,12,21.60
2017,07,05,12,13,21.60
2017,07,05,12,14,21.60
2017,07,05,12,15,21.60
2017,07,05,12,16,21.60
2017,07,05,12,17,21.70
2017,07,05,12,18,21.70
2017,07,05,12,19,21.70
2017,07,05,12,20,21.70
2017,07,05,12,21,21.70
2017,07,05,12,22,21.70
2017,07,05,12,23,21.70
2017,07,05,12,24,21.70
2017,07,05,12,25,21.70
2017,07,05,12,26,21.80
2017,07,05,12,27,21.90
2017,07,05,12,28,22.00
2017,07,05,12,29,22.00
2017,07,05,12,30,22.10
2017,07,05,12,31,22.20
2017,07,05,12,32,22.20
2017,07,05,12,33,22.20
2017,07,05,12,34,22.20
2017,07,05,12,35,22.20
2017,07,05,12,36,22.30
2017,07,05,12,37,22.30
2017,07,05,12,38,22.40
2017,07,05,12,39,22.40
2017,07,05,12,40,22.40
2017,07,05,12,41,22.50
2017,07,05,12,42,22.50
2017,07,05,12,43,22.40
2017,07,05,12,44,22.40
2017,07,05,12,45,22.40
2017,07,05,12,46,22.30
2017,07,05,12,47,22.30
2017,07,05,12,48,22.30
2017,07,05,12,49,22.20
2017,07,05,12,50,22.20
2017,07,05,12,51,22.20
2017,07,05,12,52,22.30
2017,07,05,12,53,22.30
2017,07,05,12,54,22.40
2017,07,05,12,55,22.30
2017,07,05,12,56,22.30
2017,07,05,12,57,22.30
2017,07,05,12,58,22.30
2017,07,05,12,59,22.40
2017,07,05,13,00,22.40
2017,07,05,13,01,22.50
2017,07,05,13,02,22.50
2017,07,05,13,03,22.50
2017,07,05,13,04,22.60
2017,07,05,13,05,22.60
2017,07,05,13,06,22.60
2017,07,05,13,07,22.70
2017,07,05,13,08,22.60
2017,07,05,13,09,22.60
2017,07,05,13,10,22.50
2017,07,05,13,11,22.40
2017,07,05,13,12,22.40
2017,07,05,13,13,22.40
2017,07,05,13,14,22.50
2017,07,05,13,15,22.60
2017,07,05,13,16,22.60
2017,07,05,13,17,22.70
2017,07,05,13,18,22.70
2017,07,05,13,19,22.80
2017,07,05,13,20,22.80
2017,07,05,13,21,22.80
2017,07,05,13,22,22.80
2017,07,05,13,23,22.80
2017,07,05,13,24,22.80
2017,07,05,13,25,22.90
2017,07,05,13,26,22.90
2017,07,05,13,27,23.00
2017,07,05,13,28,23.10
2017,07,05,13,29,23.20
2017,07,05,13,30,23.20
2017,07,05,13,31,23.30
2017,07,05,13,32,23.30
2017,07,05,13,33,23.30
2017,07,05,13,34,23.40
2017,07,05,13,35,23.40
2017,07,05,13,36,23.40
2017,07,05,13,37,23.30
2017,07,05,13,38,23.30
2017,07,05,13,39,23.30
2017,07,05,13,40,23.40
2017,07,05,13,41,23.50
2017,07,05,13,42,23.50
2017,07,05,13,43,23.60
2017,07,05,13,44,23.50
2017,07,05,13,45,23.50
2017,07,05,13,46,23.40
2017,07,05,13,47,23.40
2017,07,05,13,48,23.30
2017,07,05,13,49,23.30
2017,07,05,13,50,23.30
2017,07,05,13,51,23.20
2017,07,05,13,52,23.10
2017,07,05,13,53,23.10
2017,07,05,13,54,23.00
2017,07,05,13,55,23.00
2017,07,05,13,56,22.90
2017,07,05,13,57,22.90
2017,07,05,13,58,22.90
2017,07,05,13,59,22.90
2017,07,05,14,00,22.90
2017,07,05,14,01,22.80
2017,07,05,14,02,22.80
2017,07,05,14,03,22.70
2017,07,05,14,04,22.60
2017,07,05,14,05,22.60
2017,07,05,14,06,22.60
2017,07,05,14,07,22.60
2017,07,05,14,08,22.60
2017,07,05,14,09,22.60
2017,07,05,14,10,22.70
2017,07,05,14,11,22.70
2017,07,05,14,12,22.80
2017,07,05,14,13,22.80
2017,07,05,14,14,22.80
2017,07,05,14,15,22.90
2017,07,05,14,16,22.90
2017,07,05,14,17,22.90
2017,07,05,14,18,22.90
2017,07,05,14,19,22.90
2017,07,05,14,20,22.90
2017,07,05,14,21,22.90
2017,07,05,14,22,22.90
2017,07,05,14,23,23.00
2017,07,05,14,24,23.10
2017,07,05,14,25,23.10
2017,07,05,14,26,23.20
2017,07,05,14,27,23.20
2017,07,05,14,28,23.30
2017,07,05,14,29,23.40
2017,07,05,14,30,23.40
2017,07,05,14,31,23.50
2017,07,05,14,32,23.50
2017,07,05,14,33,23.50
2017,07,05,14,34,23.60
2017,07,05,14,35,23.60
2017,07,05,14,36,23.70
2017,07,05,14,37,23.70
2017,07,05,14,38,23.80
2017,07,05,14,39,23.80
2017,07,05,14,40,23.80
2017,07,05,14,41,23.80
2017,07,05,14,42,23.80
2017,07,05,14,43,23.80
2017,07,05,14,44,23.80
2017,07,05,14,45,23.80
2017,07,05,14,46,23.90
2017,07,05,14,47,23.80
2017,07,05,14,48,23.80
2017,07,05,14,49,23.70
2017,07,05,14,50,23.70
2017,07,05,14,51,23.60
2017,07,05,14,52,23.70
2017,07,05,14,53,23.60
2017,07,05,14,54,23.60
2017,07,05,14,55,23.50
2017,07,05,14,56,23.40
2017,07,05,14,57,23.30
2017,07,05,14,58,23.30
2017,07,05,14,59,23.40
2017,07,05,15,00,23.40
2017,07,05,15,01,23.40
2017,07,05,15,02,23.40
2017,07,05,15,03,23.30
2017,07,05,15,04,23.30
2017,07,05,15,05,23.30
2017,07,05,15,06,23.30
2017,07,05,15,07,23.30
2017,07,05,15,08,23.40
2017,07,05,15,09,23.40
2017,07,05,15,10,23.50
2017,07,05,15,11,23.60
2017,07,05,15,12,23.70
2017,07,05,15,13,23.70
2017,07,05,15,14,23.70
2017,07,05,15,15,23.70
2017,07,05,15,16,23.80
2017,07,05,15,17,23.80
2017,07,05,15,18,23.80
2017,07,05,15,19,23.80
2017,07,05,15,20,23.80
2017,07,05,15,21,23.80
2017,07,05,15,22,23.90
2017,07,05,15,23,23.90
2017,07,05,15,24,24.00
2017,07,05,15,25,24.00
2017,07,05,15,26,24.10
2017,07,05,15,27,24.00
2017,07,05,15,28,24.00
2017,07,05,15,29,24.00
2017,07,05,15,30,24.00
2017,07,05,15,31,24.10
2017,07,05,15,32,24.10
2017,07,05,15,33,24.10
2017,07,05,15,34,24.20
2017,07,05,15,35,24.10
2017,07,05,15,36,24.10
2017,07,05,15,37,24.10
2017,07,05,15,38,24.10
2017,07,05,15,39,24.00
2017,07,05,15,40,24.00
2017,07,05,15,41,23.90
2017,07,05,15,42,23.90
2017,07,05,15,43,23.90
2017,07,05,15,44,24.00
2017,07,05,15,45,24.00
2017,07,05,15,46,24.10
2017,07,05,15,47,24.20
2017,07,05,15,48,24.20
2017,07,05,15,49,24.30
2017,07,05,15,50,24.30
2017,07,05,15,51,24.40
2017,07,05,15,52,24.50
2017,07,05,15,53,24.60
2017,07,05,15,54,24.70
2017,07,05,15,55,24.70
2017,07,05,15,56,24.70
2017,07,05,15,57,24.80
2017,07,05,15,58,24.80
2017,07,05,15,59,24.80
2017,07,05,16,00,24.80
2017,07,05,16,01,24.80
2017,07,05,16,02,24.80
2017,07,05,16,03,24.70
2017,07,05,16,04,24.70
2017,07,05,16,05,24.70
2017,07,05,16,06,24.60
2017,07,05,16,07,24.60
2017,07,05,16,08,24.60
2017,07,05,16,09,24.60
2017,07,05,16,10,24.60
2017,07,05,16,11,24.60
2017,07,05,16,12,24.70
2017,07,05,16,13,24.70
2017,07,05,16,14,24.60
2017,07,05,16,15,24.60
2017,07,05,16,16,24.60
2017,07,05,16,17,24.70
2017,07,05,16,18,24.70
2017,07,05,16,19,24.80
2017,07,05,16,20,24.70
2017,07,05,16,21,24.70
2017,07,05,16,22,24.70
2017,07,05,16,23,24.70
2017,07,05,16,24,24.70
2017,07,05,16,25,24.60
2017,07,05,16,26,24.60
2017,07,05,16,27,24.60
2017,07,05,16,28,24.50
2017,07,05,16,29,24.50
2017,07,05,16,30,24.50
2017,07,05,16,31,24.40
2017,07,05,16,32,24.30
2017,07,05,16,33,24.20
2017,07,05,16,34,24.10
2017,07,05,16,35,24.00
2017,07,05,16,36,23.90
2017,07,05,16,37,23.90
2017,07,05,16,38,23.80
2017,07,05,16,39,23.70
2017,07,05,16,40,23.70
2017,07,05,16,41,23.70
2017,07,05,16,42,23.70
2017,07,05,16,43,23.60
2017,07,05,16,44,23.60
2017,07,05,16,45,23.60
2017,07,05,16,46,23.70
2017,07,05,16,47,23.70
2017,07,05,16,48,23.80
2017,07,05,16,49,23.80
2017,07,05,16,50,23.80
2017,07,05,16,51,23.80
2017,07,05,16,52,23.90
2017,07,05,16,53,23.90
2017,07,05,16,54,23.90
2017,07,05,16,55,23.90
2017,07,05,16,56,23.90
2017,07,05,16,57,23.90
2017,07,05,16,58,23.80
2017,07,05,16,59,23.80
2017,07,05,17,00,23.80
2017,07,05,17,01,23.80
2017,07,05,17,02,23.80
2017,07,05,17,03,23.80
2017,07,05,17,04,23.80
2017,07,05,17,05,23.80
2017,07,05,17,06,23.80
2017,07,05,17,07,23.70
2017,07,05,17,08,23.80
2017,07,05,17,09,23.80
2017,07,05,17,10,23.80
2017,07,05,17,11,23.90
2017,07,05,17,12,24.00
2017,07,05,17,13,24.00
2017,07,05,17,14,24.00
2017,07,05,17,15,24.00
2017,07,05,17,16,24.00
2017,07,05,17,17,24.00
2017,07,05,17,18,23.90
2017,07,05,17,19,23.90